RH
99 100 100 100 100 99 99 96 100 97 92 95 99 99 99 98 99 100 99 100 100 96 97 93 97 94 91 83 83 81 78 83 87 77 86 81 84 83 77 78 78 83 84
100 100 100 100 100 98 100 96 98 96 98 100 97 99 99 100 100 99 99 100 100 100 100 99 99 99 98 98 96 98 98 93 88 89 86 89 92 85 84 83 78 89 84
99 100 100 100 100 100 100 100 100 99 100 100 98 98 99 99 100 99 99 99 99 100 99 98 100 99 99 98 99 92 86 99 97 98 59 85 97 98 92 98 89 87 87
100 100 100 98 99 96 89 89 90 92 90 89 86 84 90 94 98 100 99 100 100 99 100 100 100 99 99 99 100 99 99 100 100 100 95 88 100 100 100 94 87 91 84
96 96 96 98 100 100 86 86 84 76 81 84 88 90 81 81 91 91 92 93 94 99 100 99 100 100 100 100 100 99 100 100 100 100 100 100 100 99 99 90 93 90 87
89 93 95 98 97 96 87 82 76 71 68 69 68 68 70 80 84 77 91 94 97 99 95 91 97 100 100 100 100 100 100 100 100 99 89 99 98 98 99 85 100 98 100
69 71 77 89 78 75 75 74 68 66 64 65 64 65 70 75 79 78 77 84 82 89 86 88 91 94 92 90 93 97 99 100 100 100 100 100 98 99 100 97 99 94 92
38 37 41 44 43 53 55 53 55 52 60 63 60 59 60 63 63 68 72 75 76 78 80 83 85 85 84 87 84 86 87 92 95 100 100 99 100 100 99 93 99 88 99
38 30 31 25 26 27 29 34 40 45 51 57 59 55 57 60 61 59 58 62 70 73 76 76 75 74 73 75 81 84 84 85 98 99 100 100 100 100 98 97 99 100 100
80 58 58 41 25 22 21 24 32 31 34 37 40 39 43 46 51 53 55 58 60 69 73 74 75 79 78 76 76 81 85 92 88 86 92 100 100 100 100 100 100 99 99
78 66 70 72 60 37 27 23 23 25 22 23 26 28 29 33 36 44 55 62 67 68 77 81 84 87 86 84 86 87 95 98 100 100 99 98 98 100 100 100 100 100 100
51 68 54 72 71 53 23 15 11 11 12 14 15 17 20 24 30 36 44 53 57 65 85 99 95 93 89 88 85 87 86 89 91 94 96 97 95 97 99 100 100 100 100
62 57 71 60 71 70 56 39 29 19 18 21 22 25 24 23 22 26 34 45 57 64 81 100 94 95 92 91 90 87 85 85 86 86 92 94 96 96 97 99 98 99 99
62 67 75 77 75 78 78 87 75 60 54 50 42 32 29 31 32 33 34 44 57 67 91 96 93 92 96 94 91 91 91 93 95 94 94 96 98 98 96 97 98 99 99
48 71 56 74 78 82 89 91 91 88 90 94 93 92 72 94 100 100 87 93 100 92 99 94 92 95 100 96 97 98 93 94 93 93 92 94 94 95 96 95 96 97 98
52 40 88 92 90 92 91 93 99 100 97 94 99 92 83 50 100 100 91 100 100 94 95 98 96 95 95 100 95 96 97 94 98 99 94 94 95 95 96 96 96 95 96
58 20 66 92 94 81 94 91 87 79 81 83 100 87 88 52 100 100 100 99 100 81 81 100 96 96 97 97 96 96 98 97 98 96 98 96 95 96 96 96 96 96 96
56 26 19 76 98 86 91 88 87 86 85 84 82 93 83 65 96 100 100 64 62 90 92 99 100 95 97 99 99 99 96 94 95 97 95 96 97 95 95 95 96 96 96
67 52 36 66 94 93 89 84 86 86 85 90 87 83 79 74 97 100 100 94 96 99 98 96 99 100 97 98 100 100 100 95 97 95 97 95 96 97 95 96 96 95 96
63 86 61 77 92 86 89 89 87 90 88 86 89 99 92 85 88 88 92 98 97 100 100 100 100 100 100 100 100 100 100 97 95 96 95 97 96 96 96 95 96 96 95
62 81 79 88 92 94 92 83 98 92 90 91 92 90 100 89 98 93 93 96 95 100 100 100 100 100 98 87 100 100 100 98 84 97 97 95 97 97 96 96 95 96 97
80 84 88 94 96 95 90 96 96 87 91 92 87 89 90 88 92 92 96 96 96 98 100 100 100 100 100 78 92 81 65 51 57 83 100 97 97 97 98 95 95 93 96
70 90 94 95 93 98 91 94 92 92 94 91 90 90 90 94 92 90 93 98 97 95 100 100 100 100 98 84 69 59 47 41 41 58 97 98 100 100 100 97 91 75 88
93 98 96 96 94 93 95 91 90 92 93 92 89 91 90 93 93 92 93 96 98 96 96 99 100 100 96 90 74 70 55 47 44 59 94 98 95 95 100 100 100 97 84
98 96 96 92 91 90 90 91 91 91 92 92 94 95 90 92 94 92 95 92 92 100 100 94 100 100 100 100 92 86 65 54 50 49 92 99 100 100 99 89 100 97 84
97 97 92 92 93 91 94 92 91 92 90 92 92 92 92 94 95 92 100 92 99 97 95 100 100 100 100 100 100 83 61 53 53 55 74 89 93 85 100 90 99 100 94
Wind_Speed
27 27 33 34 32 30 27 23 18 15 6 12 9 12 20 16 15 13 15 15 21 29 35 37 39 40 39 39 38 39 41 38 42 40 38 33 27 28 32 29 28 27 31
30 41 40 38 37 33 35 29 21 22 14 11 8 3 8 15 13 17 16 18 22 24 27 35 38 40 42 39 35 35 39 43 40 40 35 37 34 36 35 34 32 30 31
40 42 43 42 40 38 34 32 29 26 27 22 18 9 5 4 7 9 12 17 17 19 21 24 28 35 37 38 34 36 37 45 42 43 41 43 41 38 33 34 37 37 32
43 45 42 41 41 39 38 36 32 29 28 28 26 24 22 20 17 13 9 10 14 17 21 23 20 26 29 29 29 33 35 43 46 43 41 45 41 39 34 36 37 34 32
42 43 41 37 37 37 39 37 36 35 32 32 29 29 27 28 30 24 21 18 15 14 14 17 17 19 22 28 31 30 31 38 42 46 43 39 39 42 42 41 37 32 29
38 40 38 39 36 39 37 35 36 36 35 30 29 29 30 29 29 28 21 23 22 20 16 17 19 18 26 26 30 32 35 37 35 43 41 43 41 44 45 42 36 32 30
40 41 40 35 39 37 36 36 36 36 34 34 34 31 31 29 26 25 25 22 23 21 21 19 20 22 24 24 24 30 32 36 41 41 37 41 43 47 45 39 39 37 34
38 39 39 38 38 36 35 37 37 36 34 34 34 33 31 31 28 25 25 26 27 27 27 27 26 26 26 26 25 23 25 28 33 36 43 46 38 41 32 31 37 34 32
40 37 37 37 35 34 35 34 34 32 32 32 31 31 32 31 31 29 27 27 26 27 27 27 28 27 27 27 26 24 20 21 21 26 31 38 44 44 38 35 34 34 35
33 34 35 33 35 34 33 31 28 29 29 28 28 30 30 30 30 31 31 31 30 29 28 28 29 30 30 30 30 29 27 24 23 23 21 24 27 28 31 37 41 39 42
25 29 31 34 34 33 31 30 29 28 26 26 26 26 28 29 29 29 30 32 31 30 30 31 30 29 29 29 28 27 26 26 23 22 22 21 20 25 23 29 32 32 40
23 25 26 27 29 30 30 29 31 30 30 31 31 31 31 31 30 29 28 28 29 30 30 29 28 27 25 25 25 24 22 21 21 20 20 20 20 19 19 20 23 27 31
20 19 21 21 22 25 26 29 30 32 31 31 31 31 31 32 32 30 29 28 27 27 26 25 25 25 25 24 23 23 23 22 21 22 22 21 18 17 16 14 13 18 22
15 17 17 18 18 20 24 26 30 32 32 32 33 32 29 30 31 32 32 30 28 27 26 26 25 23 23 23 23 24 23 22 21 21 19 18 16 14 13 11 11 9 9
15 15 17 18 18 17 19 22 26 30 31 32 33 33 33 30 30 28 28 26 25 24 21 22 23 23 25 25 24 23 23 22 23 21 19 18 16 15 14 12 9 6 3
13 14 15 15 15 15 15 15 18 23 24 26 30 33 34 27 26 29 29 23 22 22 21 24 24 23 22 24 24 24 24 23 23 23 21 18 16 14 12 9 8 10 13
13 16 13 13 15 17 17 18 20 19 18 18 23 30 32 31 25 26 28 24 20 22 22 23 24 23 23 21 23 20 22 21 20 19 20 21 18 13 10 9 7 8 10
13 14 14 13 14 17 16 16 17 20 21 22 22 24 31 34 23 24 26 27 23 22 21 20 24 25 19 19 19 20 19 17 18 19 16 18 19 18 16 14 11 8 8
12 15 15 13 13 14 17 17 16 19 19 20 23 26 31 33 21 19 22 27 23 21 21 19 19 23 24 17 15 16 17 15 13 14 19 15 15 16 14 15 14 12 9
10 13 15 14 14 16 16 17 16 19 20 20 22 25 29 33 25 25 23 25 24 22 21 19 17 17 20 18 17 13 15 16 10 9 12 16 14 13 13 13 13 14 13
10 12 13 14 14 15 17 15 16 18 19 20 21 21 24 25 22 23 23 24 25 20 22 21 19 21 19 15 15 15 12 14 10 6 9 11 14 13 10 9 10 9 11
10 13 13 13 14 16 20 15 18 19 18 21 22 22 22 21 21 22 22 23 25 22 19 23 19 21 22 18 16 16 16 15 11 4 7 9 11 9 12 8 5 4 6
10 13 13 13 15 16 18 17 19 18 20 21 22 22 21 22 22 21 21 22 25 24 20 21 22 21 22 20 17 17 17 15 13 7 5 5 10 8 10 10 8 6 3
11 14 14 15 16 18 18 20 19 19 20 21 22 22 21 22 22 21 21 21 23 23 21 19 21 25 27 21 18 18 17 13 11 6 5 6 9 5 5 7 7 5 3
11 14 15 17 18 19 20 20 21 22 22 22 22 23 23 21 22 22 22 22 21 21 23 18 17 21 24 24 20 19 18 14 11 7 2 4 3 5 4 4 5 8 2
12 14 16 17 19 20 21 23 23 24 25 24 24 24 23 22 22 22 21 25 21 23 22 17 18 17 19 21 22 22 17 12 10 7 4 5 7 5 2 2 2 6 5
Wind_Direction
42 63 72 81 84 88 92 97 94 149 206 242 240 247 241 237 238 234 237 249 261 252 253 256 255 254 254 257 255 255 256 255 246 259 260 259 244 246 264 270 271 261 258
39 57 69 76 82 80 77 82 81 86 97 85 116 237 233 242 241 237 248 252 254 255 259 261 260 259 260 262 258 256 276 254 252 261 266 253 236 250 264 265 266 258 262
47 54 63 64 68 72 73 75 72 72 64 62 66 50 31 326 293 277 270 258 258 256 252 257 259 266 270 270 263 271 257 256 258 256 267 263 259 263 261 256 260 263 255
48 57 61 64 63 66 69 67 65 66 66 63 56 48 44 40 35 25 353 323 290 272 273 258 265 259 260 262 271 270 269 265 265 257 260 262 257 258 255 253 257 255 253
51 56 56 61 65 66 70 68 67 68 63 58 57 51 44 35 32 24 18 9 0 328 317 292 283 267 267 259 263 264 257 262 256 247 244 243 244 249 251 255 253 252 255
52 56 58 55 64 65 64 66 65 65 63 61 59 54 48 46 38 27 19 16 8 6 358 348 338 319 273 271 259 254 259 261 267 263 262 253 253 252 253 253 247 239 242
48 50 53 53 56 59 59 57 57 57 56 54 53 53 48 45 41 35 36 33 32 16 14 1 347 352 340 326 303 285 279 263 261 263 264 256 256 246 240 247 244 241 240
45 46 44 46 47 47 48 48 46 44 42 42 42 42 41 40 36 33 32 29 26 23 20 14 8 1 354 338 332 325 322 298 282 270 266 266 266 241 249 254 254 251 249
37 40 40 41 42 44 44 45 44 41 40 37 35 34 33 31 28 26 26 27 25 22 17 12 7 3 359 350 348 343 322 316 312 289 280 267 258 255 241 244 243 241 238
29 35 37 37 40 41 42 42 43 41 40 37 33 31 28 26 22 18 16 14 15 14 12 11 9 5 1 355 351 347 343 343 323 310 304 287 275 248 230 223 225 234 237
39 29 37 28 27 33 36 38 38 39 38 36 34 30 26 21 18 16 16 14 11 6 5 3 3 1 358 356 355 353 350 339 337 332 321 315 305 285 262 251 242 231 217
29 32 33 34 21 20 24 30 28 26 25 23 20 19 16 15 14 14 12 9 4 4 4 359 357 354 352 354 354 354 350 348 349 347 339 333 327 316 297 285 271 255 238
21 41 26 39 28 14 20 16 20 20 20 19 15 12 9 7 5 5 4 4 4 1 0 356 353 353 354 355 359 357 355 357 1 1 3 2 352 334 321 302 287 273 258
36 20 36 31 30 21 15 14 9 12 14 14 12 9 4 2 2 1 359 358 355 356 357 352 351 354 357 358 358 1 6 8 7 7 4 360 357 354 343 330 308 297 276
25 30 33 23 24 25 14 12 5 8 9 7 4 2 3 4 3 358 358 2 354 355 348 343 349 358 0 356 0 4 4 8 11 9 8 8 6 4 9 3 4 353 274
27 33 24 21 16 18 18 16 11 8 6 1 354 349 352 357 358 355 355 1 355 357 354 357 358 0 2 360 360 7 5 8 14 9 9 9 11 16 22 31 51 76 76
28 23 30 16 5 10 10 6 0 358 0 355 347 339 341 349 359 354 356 359 2 352 2 1 357 358 358 358 360 4 4 7 9 10 16 11 13 14 21 39 56 82 88
20 12 10 17 0 6 5 358 355 350 347 345 343 332 330 346 358 351 352 349 356 1 4 4 355 349 349 355 357 358 357 358 17 15 10 26 19 20 30 33 40 53 80
5 352 3 13 1 356 350 349 349 341 341 339 337 332 334 341 355 351 350 351 355 357 354 355 353 348 346 347 351 359 355 347 358 23 20 11 24 23 22 32 28 38 58
356 343 353 6 352 351 343 336 346 339 336 336 337 335 332 338 350 346 347 343 349 352 348 347 346 340 337 346 349 347 352 342 346 13 29 26 11 22 28 29 35 30 39
348 343 352 352 347 337 326 339 339 329 331 333 330 331 330 338 338 338 339 336 340 343 340 340 343 337 332 339 345 345 336 330 341 1 27 29 26 22 10 34 50 49 56
347 342 347 345 329 327 333 346 326 329 329 324 324 324 328 330 328 332 333 332 333 335 334 334 338 332 332 340 338 333 337 342 342 2 28 33 18 18 26 16 15 64 96
340 331 337 332 325 322 328 327 322 328 324 323 325 327 328 326 325 326 325 325 325 330 332 328 333 329 327 336 340 341 344 351 355 359 10 2 21 19 31 3 353 19 131
340 324 329 325 323 323 323 321 325 320 318 319 321 322 320 320 320 321 322 320 321 323 324 323 332 329 332 332 338 345 341 343 352 358 358 360 15 342 360 48 43 27 103
314 319 319 315 319 320 319 318 317 316 315 315 316 316 319 318 316 317 315 314 314 310 312 325 321 320 324 325 325 332 334 332 338 344 333 323 358 333 336 346 27 9 66
324 315 313 316 315 315 312 312 312 311 312 312 313 314 314 313 313 314 310 318 307 307 317 313 309 308 318 320 319 322 330 328 327 327 300 302 317 294 270 344 79 43 3